FW1711 Weather Reports


time (UTC)temp
C
wind
direction
speed
KPH
gust
KPH
rain 1hr
cm
rain 24hr
cm
rain mn
cm
humidity
%
barometer
mb
20260506010050 12 331 0.0 4.8 0.00 2.13 0.33 88 989.2
20260506004550 13 326 0.0 1.6 0.00 2.13 0.33 88 988.9
20260506003049 13 319 0.0 4.8 0.00 2.13 0.33 88 988.7
20260506001607 13 319 0.0 6.4 0.03 2.13 0.33 87 988.7
20260506000049 13 319 0.0 1.6 0.08 2.13 0.33 87 989.0
20260505234550 13 319 0.0 0.0 0.15 2.13 0.33 88 989.1
20260505233053 13 319 0.0 0.0 0.23 2.13 0.33 88 988.9
20260505231551 13 319 0.0 1.6 0.23 2.11 0.33 88 989.0
20260505230041 13 319 0.0 1.6 0.23 2.03 0.23 88 989.6
20260505224542 13 319 0.0 1.6 0.23 1.98 0.18 87 989.8
20260505223043 13 258 0.0 4.8 0.25 1.91 0.10 87 990.1
20260505221544 13 326 0.0 4.8 0.53 1.88 0.08 86 989.8
20260505220039 13 320 1.6 14.5 0.97 1.80 0.00 85 990.1
20260505214551 13 296 3.2 17.7 0.97 1.75 1.75 83 990.1
20260505213048 13 324 1.6 12.9 1.37 1.65 1.65 81 990.2
20260505211530 15 9 0.0 12.9 1.04 1.30 1.30 80 990.5
20260505210031 16 331 0.0 1.6 0.71 0.84 0.84 83 989.8
20260505204532 16 331 0.0 0.0 0.79 0.79 0.79 82 989.7
20260505203028 16 134 0.0 0.0 0.25 0.28 0.28 81 989.8
20260505201542 16 134 0.0 0.0 0.23 0.25 0.25 79 989.4
20260505200028 16 134 0.0 0.0 0.10 0.13 0.13 78 989.7
20260505194524 16 132 0.0 0.0 0.00 0.03 0.03 76 989.8
20260505193040 17 132 0.0 1.6 0.00 0.03 0.03 76 989.5
20260505191524 17 123 0.0 1.6 0.00 0.03 0.03 75 989.6
20260505190030 17 123 0.0 1.6 0.00 0.03 0.03 75 989.5
20260505184525 17 165 0.0 1.6 0.00 0.03 0.03 74 989.7
20260505183036 17 165 0.0 0.0 0.00 0.03 0.03 74 989.8
20260505181521 17 165 0.0 0.0 0.00 0.03 0.03 73 990.0
20260505180031 18 165 0.0 0.0 0.00 0.03 0.03 72 990.1
20260505174527 18 165 0.0 1.6 0.00 0.03 0.03 71 990.1
20260505173017 18 165 0.0 1.6 0.00 0.03 0.03 70 990.2
20260505171526 18 134 0.0 3.2 0.00 0.03 0.03 68 990.1
20260505170015 19 134 0.0 1.6 0.00 0.03 0.03 68 990.2
20260505164528 19 134 0.0 3.2 0.00 0.03 0.03 67 990.4
20260505163018 19 126 0.0 0.0 0.00 0.03 0.03 67 990.3
20260505161512 20 126 0.0 0.0 0.00 0.03 0.03 68 990.5
20260505153011 20 126 0.0 0.0 0.00 0.03 0.03 66 990.6
20260505151508 20 126 0.0 0.0 0.00 0.03 0.03 66 990.7
20260505124607 23 165 0.0 1.6 0.00 0.03 0.03 61 991.3
20260505123113 23 142 0.0 3.2 0.00 0.03 0.03 60 991.4
20260505121559 23 195 0.0 3.2 0.00 0.03 0.03 56 991.4
20260505120057 23 210 0.0 3.2 0.00 0.03 0.03 52 991.5
20260505114602 23 256 0.0 3.2 0.00 0.03 0.03 54 991.6
20260505113055 23 50 0.0 0.0 0.00 0.03 0.03 52 991.7
20260505111558 23 50 0.0 4.8 0.00 0.03 0.03 55 991.8
20260505101539 22 233 0.0 0.0 0.00 0.03 0.03 61 992.3
20260505100034 22 233 0.0 1.6 0.00 0.03 0.03 58 992.4
20260505094531 21 127 0.0 3.2 0.00 0.03 0.03 61 992.4
20260505093034 21 159 0.0 3.2 0.00 0.03 0.03 63 992.7
20260505091533 21 159 0.0 1.6 0.00 0.03 0.03 63 992.8
20260505090039 20 306 0.0 1.6 0.00 0.03 0.03 68 992.8
20260505084522 18 311 0.0 0.0 0.00 0.03 0.03 72 992.8
20260505083015 18 311 0.0 0.0 0.00 0.03 0.03 73 992.8
20260505081516 18 311 0.0 1.6 0.00 0.03 0.03 71 993.0
20260505080009 17 304 0.0 3.2 0.00 0.03 0.03 76 993.2
20260505074508 16 304 0.0 3.2 0.00 0.03 0.03 81 993.5
20260505073013 16 305 0.0 1.6 0.00 0.03 0.03 83 993.6
20260505071508 15 305 0.0 0.0 0.03 0.03 0.03 83 993.6
20260505070005 15 305 0.0 1.6 0.03 0.03 0.03 83 993.6
20260505064504 15 305 0.0 0.0 0.03 0.03 0.03 82 993.5
20260505063005 15 305 0.0 0.0 0.03 0.03 0.03 81 993.5
20260505061509 15 305 0.0 0.0 0.00 0.00 0.00 80 993.8
20260505060003 15 305 0.0 1.6 0.00 0.00 0.00 79 993.9
20260505054502 15 305 0.0 1.6 0.00 0.00 0.00 79 993.8
20260505053000 14 305 0.0 1.6 0.00 0.00 0.00 80 993.5
20260505051559 14 305 0.0 1.6 0.00 0.00 0.00 78 993.5
20260505050126 14 305 0.0 0.0 0.00 0.00 0.00 77 993.2
20260505041604 13 305 0.0 0.0 0.00 0.00 0.00 75 993.1
20260505040058 13 305 0.0 0.0 0.00 0.00 0.00 75 993.2
20260505034550 13 305 0.0 0.0 0.00 0.00 0.00 74 993.3
20260505033050 14 305 0.0 0.0 0.00 0.00 0.00 74 993.4
20260505031548 14 305 0.0 0.0 0.00 0.00 0.00 74 993.5
20260505030044 14 305 0.0 0.0 0.00 0.00 0.00 73 993.6
20260505024542 15 305 0.0 0.0 0.00 0.00 0.00 73 993.7
20260505023045 15 305 0.0 0.0 0.00 0.00 0.00 73 993.9
20260505021542 15 305 0.0 0.0 0.00 0.00 0.00 73 994.1
20260505020038 15 305 0.0 0.0 0.00 0.00 0.00 73 994.2
20260505014556 15 305 0.0 0.0 0.00 0.00 0.00 73 994.2
20260505013039 15 305 0.0 0.0 0.00 0.00 0.00 72 994.3
20260505011533 15 305 0.0 0.0 0.00 0.00 0.00 72 994.5